CZ-6A DEB

Satellite information

Favourite Embed

Satellite Type and Status

DEBRISIN ORBIT

Key statistics

Satellite CZ-6A DEB at a glance.

Uptime

969

Days in orbit

Revolutions

≈ 14.2

Per day

Orbit

SSO

Sun Synchronous Orbit

Inclination

98.8

Latest

Satellite identification and parameters

Extended collection of information and parameters for CZ-6A DEB.

Object identification

Identified? True

Debris? True

Object name: CZ-6A DEB

International designator: 2022-151SG

Object number (NORAD): 54943

Object ID (CCSDS): 54943

Country: PEOPLES REPUBLIC OF CHINA (PRC)

Current information (Y/N): Y

RCS size: SMALL

Orbital parameters

Period: 101.082 minutes

Inclination: 98.8112 deg

SMA: 7188.025 km

Apoapsis: 824.736 km

Periapsis: 795.044 km

RAAN: 200.8388 deg

Eccentricy: 0.0020654

Argument of periapsis: 192.4984 deg

Mean anomaly: 167.5685 deg

Mean motion: 14.24585111 rev/day

Mean motion (dot): 0.00002573 rev/day2

B* drag term: 0.0011247 1/REarth

Two-line elements (TLE)

Creation date: July 4, 2025, 6:39 p.m.

Reference frame: TEME

Reference center: EARTH

Epoch: July 4, 2025, 11:43 a.m. UTC

TLE line 0: 0 CZ-6A DEB

TLE line 1: 1 54943U 22151SG 25185.48868163 .00002573 00000-0 11247-2 0 9995

TLE line 2: 2 54943 98.8112 200.8388 0020654 192.4984 167.5685 14.24585111136290

Live tracking on map

Real-time ground track for satellite CZ-6A DEB.

In-orbit conjunctions

A list of the most updated potential collisions computed for object CZ-6A DEB.

Target Orbit TCA Probability of collision Miss distance Type
CZ-6A DEB LEO 2025-02-03 06:48:47 0.0001576683 611.0 (m) DEBRIS
COSMOS 1275 DEB LEO 2024-12-16 00:09:03 0.0001492914 163.0 (m) DEBRIS

Associated space launch

Chinese satellite reported for atmospheric/ocean/environmental/spatial parameter research purposes, details TBD.

CZ-6A DEB was lifted into orbit during the mission ‘Long March 6A | Yunhai 3’, on board a Long March 6A space rocket.

The launch took place on Nov. 11, 2022, 10:52 p.m. from Launch Complex 9A.

For more information about the launch, click the button.

Launch to space Long March 6A | Yunhai 3
Long March 6A | Yunhai 3

Agency: N/A

Status: Launch Successful

Launch date: Nov. 11, 2022, 10:52 p.m. UTC

Rocket: Long March 6A

Launch pad: Launch Complex 9A

Location: Taiyuan Satellite Launch Center, People's Republic of China

...

Latest news about this satellite

There are no fresh news available about this satellite. Check back as we update our databases every day.


Newsletter sign-up

Weekly statistics, charts and insights to help you stay on top of the space industry.